Content
SEND FEEDBACK

Daily
Averages
Monthly
Summary
Germany

GOTTINGEN, GERMANY


Home > Europe > Germany
Elevation: 171 meters     Latitude: 51 30N     Longitude: 009 57E

WEATHER
 
SELECT A DAY
Number of Records: 56,113;   Date Range: 7/4/96 - 4/14/14
 
SHARE

PRINT THIS DATA

[ ← Previous Day ]
WEATHER ALMANAC - 31 JANUARY, 2013
[ Next Day → ]
[ °F ]   °C
Weather ElementAverageHighLow
Temperature5.8 °C7 °C (12:20 pm)5 °C (7:20 am)
Dewpoint1 °C2 °C (2:50 pm)0 °C (7:20 am)
Humidity71.4 %81 % (2:50 pm)61 % (12:20 pm)
Barometer1009.5 hPa1013.2 hPa (7:20 am)1006.1 hPa (4:50 pm)
Wind Speed34.1 km/h46.3 km/h (3:50 pm)
Wind Gust77.7 km/h (6:50 pm)
Weather ElementAverage
Visibility9.7 km
Wind DirectionWSW (235.9 °)

Weather ElementTotal
Precipitation---
Heating Degree Days12.3 (Base 18.3)
Averaged from 27 records on 31 January, 2013
WEATHER CONDITIONS BREAKOUT
WIND DIRECTION BREAKOUT
WEATHER BY HOUR - 31 JANUARY, 2013
[ °F ]   °C
Local TimeTemperatureDewpointHumidityBarometerVisibilityWind DirectionWind SpeedGust SpeedPrecipitationEventsConditions
7:20 AM5 °C0 °C70 %1013.2 hPa10 kmWSW (240°)22.2 km/hScattered Clouds
7:50 AM5 °C0 °C70 %1013.2 hPa10 kmWSW (240°)20.4 km/hPartly Cloudy
8:20 AM5 °C0 °C70 %1013.2 hPa10 kmWSW (240°)24.1 km/hPartly Cloudy
8:50 AM6 °C0 °C66 %1013.2 hPa10 kmWest (260°)24.1 km/hPartly Cloudy
9:20 AM6 °C0 °C66 %1013.2 hPaWSW (240°)22.2 km/hClear
9:50 AM6 °C1 °C70 %1013.2 hPaSSW (210°)24.1 km/hClear
10:20 AM6 °C1 °C70 %1012.2 hPaSSW (210°)29.6 km/hClear
10:50 AM6 °C1 °C70 %1011.2 hPaSSW (210°)37 km/hClear
11:20 AM6 °C0 °C66 %1011.2 hPa10 kmSW (220°)40.7 km/hMostly Cloudy
11:50 AM6 °C1 °C70 %1011.2 hPa10 kmSW (220°)37 km/hMostly Cloudy
12:20 PM7 °C0 °C61 %1010.2 hPa10 kmSW (220°)38.9 km/h57.5 km/hMostly Cloudy
12:50 PM7 °C0 °C61 %1009.1 hPa10 kmSW (230°)38.9 km/hMostly Cloudy
1:20 PM7 °C0 °C61 %1009.1 hPa10 kmSW (230°)35.2 km/hMostly Cloudy
1:50 PM7 °C0 °C61 %1008.1 hPa10 kmSW (230°)40.7 km/h66.6 km/hLight Drizzle
2:20 PM6 °C1 °C70 %1009.1 hPa8 kmWSW (240°)40.7 km/h62.9 km/hRainLight Rain
2:50 PM5 °C2 °C81 %1007.1 hPa6 kmSW (220°)38.9 km/hRainLight Rain
3:20 PM5 °C2 °C81 %1007.1 hPa10 kmSW (230°)42.6 km/h61.2 km/hScattered Clouds
3:50 PM5 °C2 °C81 %1007.1 hPa10 kmSW (230°)46.3 km/h66.6 km/hScattered Clouds
4:20 PM5 °C2 °C81 %1007.1 hPa10 kmSW (230°)38.9 km/hLight Drizzle
4:50 PM5 °C2 °C81 %1006.1 hPa10 kmSW (230°)37 km/hMostly Cloudy
5:20 PM6 °C2 °C76 %1007.1 hPa10 kmSW (230°)37 km/h57.5 km/hMostly Cloudy
5:50 PM6 °C2 °C76 %1006.1 hPa10 kmWSW (240°)33.3 km/h53.8 km/hScattered Clouds
6:20 PM7 °C2 °C71 %1006.1 hPa10 kmWSW (250°)33.3 km/hMostly Cloudy
6:50 PM6 °C1 °C70 %1007.1 hPa10 kmWest (260°)46.3 km/h77.7 km/hRainLight Rain
7:20 PM5 °C2 °C81 %1007.1 hPa10 kmWest (270°)31.5 km/h51.8 km/hRainLight Rain
7:50 PM6 °C2 °C76 %1007.1 hPa10 kmWest (270°)27.8 km/h50.1 km/hScattered Clouds
8:20 PM6 °C1 °C70 %1008.1 hPa10 kmWest (270°)29.6 km/h59.2 km/hPartly Cloudy
Hourly data recorded from EDVK, located 41.09 kilometers away from Gottingen, Germany







STORIES FROM OUR PARTNERS